Home > Weather > Foz do Iguaçu > Past weeks

Flag for Brazil Past Weather in Foz do Iguaçu, Paraná, Brazil — Yesterday and Last 2 Weeks

Now
59 °F

Fog.


Feels Like: 59 °F
Forecast: 61 / 77 °F
Wind: 2 mph from West

Location: Foz Do Iguacu Aeroporto

Current Time: Jun 27, 2016 at 4:54:43 AM

Latest Report: Jun 27, 2016 at 4:00 AM


Visibility: 0 mi

Pressure: 30.18 "Hg

Humidity: 94%

Dew Point: 57 °F

Location of Foz do IguaçuLocation

Past Weather in Foz do Iguaçu — Graph

°F

Foz do Iguaçu Temperature Yesterday

Maximum temperature yesterday: 84 °F (at 2:00 PM)
Minimum temperature yesterday: 59 °F (at 7:00 AM)
Average temperature yesterday: 69 °F

High & Low Weather Summary for the Past Weeks

 TemperatureHumidityPressure
High84 °F (Jun 26, 2:00 PM)100% (Jun 12, 4:00 AM)30.48 "Hg (Jun 12, 4:00 AM)
Low28 °F (Jun 12, 7:00 AM)34% (Jun 12, 4:00 PM)30.04 "Hg (Jun 24, 4:00 PM)
Average59 °F83%30.17 "Hg
* Reported Jun 12 3:00 AM — Jun 27 3:00 AM, Foz do Iguaçu, Weather by CustomWeather, © 2016

Note: Actual official high and low records may vary slightly from our data, if they occured in-between our weather recording intervals... More about our weather records

Advertising

Foz do Iguaçu Weather History for the Previous 24 Hours

Scroll right to see more
 ConditionsComfort  
Time TempWeatherWind HumidityBarometerVisibility
3:00 AM
Mon, Jun 27
57 °FClear.No wind94%30.18 "Hg10 mi
2:00 AM59 °FClear.2 mph94%30.18 "Hg10 mi
1:00 AM59 °FClear.1 mph100%30.18 "Hg10 mi
12:00 AM64 °FClear.3 mph88%30.15 "Hg10 mi
11:00 PM
Sun, Jun 26
64 °FClear.3 mph88%30.15 "Hg10 mi
10:00 PM64 °FClear.2 mph88%30.15 "Hg10 mi
9:00 PM64 °FClear.1 mph88%30.15 "Hg10 mi
8:00 PM66 °FClear.2 mph83%30.12 "Hg10 mi
7:00 PM70 °FClear.7 mph73%30.12 "Hg10 mi
6:00 PM79 °FClear.6 mph54%30.12 "Hg10 mi
5:00 PM82 °FClear.8 mph45%30.09 "Hg10 mi
4:00 PM84 °FSunny.9 mph43%30.09 "Hg10 mi
3:00 PM84 °FSunny.9 mph43%30.09 "Hg10 mi
2:00 PM84 °FSunny.9 mph45%30.12 "Hg10 mi
1:00 PM79 °FSunny.8 mph58%30.15 "Hg10 mi
12:00 PM75 °FSunny.8 mph61%30.18 "Hg10 mi
11:00 AM70 °FSunny.8 mph64%30.18 "Hg10 mi
10:00 AM66 °FSunny.12 mph68%30.18 "Hg10 mi
9:00 AM63 °FSunny.9 mph73%30.18 "Hg10 mi
8:00 AM59 °FSunny.9 mph82%30.15 "Hg10 mi
7:00 AM59 °FSunny.10 mph82%30.12 "Hg10 mi
6:00 AM61 °FClear.14 mph77%30.09 "Hg10 mi
5:00 AM61 °FClear.9 mph77%30.09 "Hg10 mi
4:00 AM61 °FClear.13 mph77%30.09 "Hg10 mi
Weather by CustomWeather, © 2016

See weather overviewHow to use our weather pages